Weather History for Chamberlain, SD

Change the Weather History Date:

Thursday, November 22, 2012

  Actual Average Record
Temperature  
Mean Temperature 40 °F -  
Max Temperature 55 °F 39 °F 70 °F (1998)
Min Temperature 25 °F 20 °F 1 °F (2000)
Degree Days  
Heating Degree Days 24    
Moisture  
Dew Point 29 °F    
Average Humidity 59    
Maximum Humidity 86    
Minimum Humidity 29    
Precipitation  
Precipitation 0.02 in - - ()
Sea Level Pressure  
Sea Level Pressure 30.02 in    
Wind  
Wind Speed 16 mph (NW)    
Max Wind Speed 25 mph    
Max Gust Speed 44 mph    
Averages and records for this station are not official NWS values.
T = Trace of Precipitation, MM = Missing Value Source: NWS Daily Summary

Daily Weather History Graph

Daily Weather History Graph

Search for Another Location

Airport:

Trip Planner

Search our weather history database for the weather conditions in past years. The results will help you decide how hot, cold, wet, or windy it might be!

Date:

Astronomy

Nov. 22, 2012 Rise Set
Actual Time 7:41 AM CST 5:05 PM CST
Civil Twilight 7:09 AM CST 5:37 PM CST
Nautical Twilight 6:34 AM CST 6:12 PM CST
Astronomical Twilight 6:00 AM CST 6:46 PM CST
Moon 2:00 PM CST 1:52 AM CST
Length of Visible Light 10h 27m
Length of Day
9h 24m
Waxing Gibbous, 71% of the Moon is Illuminated
Nov 22
Waxing Gibbous
Nov 28
Full
Dec 6
Last Quarter
Dec 13
New
Dec 19
First Quarter

Hourly Weather History & Observations

Time (CST) Temp. Windchill Dew Point Humidity Pressure Visibility Wind Dir Wind Speed Gust Speed Precip Events Conditions
12:52 AM 53.1 °F - 23.0 °F 31% 29.61 in - WSW 9.2 mph - N/A   Unknown
1:52 AM 55.9 °F - 24.1 °F 29% 29.63 in - West 13.8 mph - N/A   Unknown
2:52 AM 53.1 °F - 27.0 °F 37% 29.67 in - NNW 12.7 mph - N/A   Unknown
3:52 AM 53.1 °F - 34.0 °F 48% 29.67 in - NNW 15.0 mph 21.9 mph N/A   Unknown
4:52 AM 50.0 °F - 35.1 °F 57% 29.75 in - NW 20.7 mph - N/A   Unknown
5:52 AM 46.9 °F - 35.1 °F 63% 29.80 in - WNW 16.1 mph - N/A   Unknown
6:52 AM 44.1 °F 38.6 °F 35.1 °F 71% 29.82 in - NW 10.4 mph - N/A   Unknown
7:52 AM 43.0 °F 37.2 °F 35.1 °F 74% 29.88 in - WNW 10.4 mph - N/A   Unknown
8:52 AM 45.0 °F 39.7 °F 36.0 °F 71% 29.92 in - WNW 10.4 mph - N/A   Unknown
9:52 AM 45.0 °F 37.1 °F 41.0 °F 86% 29.96 in - NW 19.6 mph 26.5 mph N/A   Unknown
10:52 AM 45.0 °F 39.3 °F 39.9 °F 82% 30.00 in - NW 11.5 mph - 0.02 in   Unknown
11:52 AM 45.0 °F 36.4 °F 37.0 °F 74% 30.01 in - NW 23.0 mph 33.4 mph N/A   Unknown
12:52 PM 48.0 °F - 34.0 °F 58% 30.03 in - NW 23.0 mph 33.4 mph N/A   Unknown
1:52 PM 48.9 °F - 32.0 °F 52% 30.04 in - WNW 25.3 mph 31.1 mph N/A   Unknown
2:52 PM 48.9 °F - 30.0 °F 48% 30.07 in - NW 25.3 mph 34.5 mph N/A   Unknown
3:52 PM 46.0 °F 37.6 °F 28.0 °F 50% 30.10 in - NNW 24.2 mph 39.1 mph N/A   Unknown
4:52 PM 43.0 °F 34.8 °F 28.0 °F 56% 30.16 in - NW 18.4 mph 24.2 mph N/A   Unknown
5:52 PM 37.9 °F 30.5 °F 24.1 °F 57% 30.21 in - NNW 11.5 mph 19.6 mph N/A   Unknown
6:52 PM 36.0 °F 29.0 °F 25.0 °F 64% 30.24 in - NW 9.2 mph - N/A   Unknown
7:52 PM 32.0 °F 20.5 °F 28.0 °F 85% 30.29 in - NNW 18.4 mph 35.7 mph N/A   Unknown
8:52 PM 28.9 °F 14.5 °F 16.0 °F 58% 30.34 in - NNW 25.3 mph 39.1 mph N/A   Unknown
9:52 PM 27.0 °F 11.9 °F 12.9 °F 56% 30.38 in - NNW 25.3 mph 43.7 mph N/A   Unknown
10:52 PM 26.1 °F 11.0 °F 12.9 °F 58% 30.41 in - NNW 24.2 mph 32.2 mph N/A   Unknown
11:52 PM 25.0 °F 9.2 °F 14.0 °F 63% 30.44 in - NW 25.3 mph 32.2 mph N/A   Unknown